CW3794 Weather Reports


Display with metric or nautical units.
time (UTC)temp
F
wind
direction
speed
MPH
gust
MPH
rain 1hr
in
rain 24hr
in
rain mn
in
humidity
%
barometer
mb
20170924135354 58 54 0.0 0.0 0.00 0.00 0.00 36 1010.6
20170924134410 57 54 0.0 0.0 0.00 0.00 0.00 37 1010.6
20170924133929 57 53 0.0 0.0 0.00 0.00 0.00 37 1010.6
20170924132436 57 53 0.0 0.0 0.00 0.00 0.00 37 1010.4
20170924125855 58 53 0.0 0.0 0.00 0.00 0.00 36 1010.1
20170924125428 58 53 0.0 0.0 0.00 0.00 0.00 36 1010.1
20170924124422 58 53 0.0 0.0 0.00 0.00 0.00 37 1009.9
20170924123904 58 53 0.0 0.0 0.00 0.00 0.00 37 1009.9
20170924120911 59 53 0.0 0.0 0.00 0.00 0.00 37 1009.7
20170924113417 59 53 0.0 0.0 0.00 0.00 0.00 35 1009.2
20170924112918 60 53 0.0 0.0 0.00 0.00 0.00 35 1009.3
20170924111912 60 53 0.0 0.0 0.00 0.00 0.00 34 1009.3
20170924111434 60 53 0.0 0.0 0.00 0.00 0.00 34 1009.2
20170924110424 60 53 0.0 0.0 0.00 0.00 0.00 34 1009.1
20170924105418 60 54 0.0 0.0 0.00 0.00 0.00 33 1009.2
20170924104908 60 53 0.0 0.0 0.00 0.00 0.00 33 1009.1
20170924103918 60 54 0.0 0.0 0.00 0.00 0.00 33 1009.1
20170924102415 61 53 0.0 0.0 0.00 0.00 0.00 32 1009.1
20170924101411 61 53 0.0 0.0 0.00 0.00 0.00 32 1009.1
20170924100853 61 54 0.0 0.0 0.00 0.00 0.00 32 1008.9
20170924100419 61 53 0.0 0.0 0.00 0.00 0.00 31 1008.8
20170924095929 61 53 0.0 0.0 0.00 0.00 0.00 31 1008.8
20170924095409 61 53 0.0 0.0 0.00 0.00 0.00 31 1008.8
20170924094914 61 53 0.0 0.0 0.00 0.00 0.00 32 1008.8
20170924093933 61 53 0.0 0.0 0.00 0.00 0.00 32 1008.8
20170924092422 61 54 0.0 2.0 0.00 0.00 0.00 32 1008.7
20170924091936 61 336 0.0 2.0 0.00 0.00 0.00 32 1008.7
20170924091402 62 335 0.0 0.0 0.00 0.00 0.00 33 1008.7
20170924090931 62 335 0.0 0.0 0.00 0.00 0.00 33 1008.7
20170924090429 62 333 0.0 0.0 0.00 0.00 0.00 33 1008.7
20170924085354 62 335 0.0 0.0 0.00 0.00 0.00 33 1008.6
20170924084920 62 336 0.0 0.0 0.00 0.00 0.00 33 1008.7
20170924083421 62 337 0.0 0.0 0.00 0.00 0.00 34 1008.7
20170924082418 62 332 0.0 0.0 0.00 0.00 0.00 34 1008.6
20170924081930 62 332 0.0 0.0 0.00 0.00 0.00 33 1008.6
20170924081405 62 335 0.0 0.0 0.00 0.00 0.00 33 1008.5
20170924075929 63 335 0.0 0.0 0.00 0.00 0.00 32 1008.6
20170924075434 63 335 0.0 0.0 0.00 0.00 0.00 32 1008.6
20170924074914 63 336 0.0 0.0 0.00 0.00 0.00 32 1008.6
20170924073938 63 335 0.0 0.0 0.00 0.00 0.00 32 1008.5
20170924073401 63 337 0.0 0.0 0.00 0.00 0.00 32 1008.5
20170924072414 64 338 0.0 0.0 0.00 0.00 0.00 31 1008.6
20170924071909 64 336 0.0 0.0 0.00 0.00 0.00 31 1008.6
20170924071415 64 334 0.0 0.0 0.00 0.00 0.00 31 1008.5
20170924070407 64 334 0.0 0.0 0.00 0.00 0.00 31 1008.4
20170924065901 65 336 0.0 0.0 0.00 0.00 0.00 31 1008.4
20170924065415 65 336 0.0 0.0 0.00 0.00 0.00 31 1008.3
20170924064925 65 333 0.0 0.0 0.00 0.00 0.00 30 1008.3
20170924064419 66 333 0.0 0.0 0.00 0.00 0.00 30 1008.3
20170924063437 67 333 0.0 0.0 0.00 0.00 0.00 29 1008.3
20170924062411 68 336 0.0 0.0 0.00 0.00 0.00 28 1008.4
20170924061908 68 333 0.0 0.0 0.00 0.00 0.00 28 1008.3
20170924061426 69 334 0.0 0.0 0.00 0.00 0.00 27 1008.3
20170924060906 70 335 0.0 0.0 0.00 0.00 0.00 27 1008.3
20170924055431 73 333 0.0 6.0 0.00 0.00 0.00 23 1008.4
20170924054404 71 319 0.0 4.0 0.00 0.00 0.00 24 1008.3
20170924053935 71 234 0.0 2.0 0.00 0.00 0.00 25 1008.3
20170924052356 71 234 0.0 0.0 0.00 0.00 0.00 26 1008.2
20170924051915 71 232 0.0 1.0 0.00 0.00 0.00 25 1008.2
20170924050911 70 232 0.0 1.0 0.00 0.00 0.00 27 1008.2
20170924050424 70 232 0.0 0.0 0.00 0.00 0.00 27 1008.2
20170924045857 70 232 0.0 0.0 0.00 0.00 0.00 28 1008.2
20170924043855 72 232 0.0 0.0 0.00 0.00 0.00 28 1008.0
20170924042901 72 232 0.0 0.0 0.00 0.00 0.00 27 1008.0
20170924042353 72 232 0.0 0.0 0.00 0.00 0.00 27 1008.0
20170924041937 72 232 0.0 0.0 0.00 0.00 0.00 27 1008.0
20170924041356 72 232 0.0 0.0 0.00 0.00 0.00 27 1008.0
20170924040911 71 232 0.0 0.0 0.00 0.00 0.00 27 1008.0
20170924034905 69 232 0.0 0.0 0.00 0.00 0.00 29 1008.0
20170924034423 69 231 0.0 0.0 0.00 0.00 0.00 29 1008.0
20170924033430 69 232 0.0 0.0 0.00 0.00 0.00 29 1007.9
20170924032425 70 232 0.0 0.0 0.00 0.00 0.00 28 1007.9
20170924031910 70 235 0.0 0.0 0.00 0.00 0.00 28 1007.8
20170924030855 71 232 0.0 0.0 0.00 0.00 0.00 27 1007.8
20170924030412 72 233 0.0 0.0 0.00 0.00 0.00 27 1007.8
20170924025857 72 232 0.0 0.0 0.00 0.00 0.00 26 1007.7
20170924025431 72 232 0.0 0.0 0.00 0.00 0.00 26 1007.7
20170924024902 73 232 0.0 0.0 0.00 0.00 0.00 26 1007.7
20170924023438 74 232 0.0 2.0 0.00 0.00 0.00 26 1007.7
20170924022403 75 231 0.0 0.0 0.00 0.00 0.00 25 1007.5
20170924021935 76 232 0.0 0.0 0.00 0.00 0.00 24 1007.5
20170924021417 76 232 0.0 0.0 0.00 0.00 0.00 23 1007.5
20170924020919 76 233 0.0 2.0 0.00 0.00 0.00 23 1007.5
20170924020424 76 232 0.0 2.0 0.00 0.00 0.00 23 1007.3
20170924015429 77 231 0.0 1.0 0.00 0.00 0.00 22 1007.2
20170924013918 77 232 0.0 3.0 0.00 0.00 0.00 22 1007.2
20170924011901 78 248 1.0 4.0 0.00 0.00 0.00 22 1007.2
20170924010917 78 249 0.0 0.0 0.00 0.00 0.00 22 1007.2
20170924004910 79 212 0.0 2.0 0.00 0.00 0.00 22 1007.2
20170924003935 79 212 0.0 3.0 0.00 0.00 0.00 22 1007.1
20170924003405 79 213 0.0 4.0 0.00 0.00 0.00 21 1007.2
20170924002912 80 216 0.0 5.0 0.00 0.00 0.00 21 1007.2
20170924000425 80 265 0.0 7.0 0.00 0.00 0.00 21 1007.1
20170923235936 81 226 1.0 4.0 0.00 0.00 0.00 21 1007.2
20170923233908 81 207 3.0 9.0 0.00 0.00 0.00 20 1007.1
20170923232920 81 226 1.0 5.0 0.00 0.00 0.00 20 1007.1
20170923231926 81 228 1.0 6.0 0.00 0.00 0.00 19 1007.1
20170923230435 81 251 0.0 7.0 0.00 0.00 0.00 20 1007.1
20170923225911 81 241 1.0 9.0 0.00 0.00 0.00 20 1007.1
20170923225401 81 251 4.0 12.0 0.00 0.00 0.00 20 1007.2
20170923224927 82 215 2.0 12.0 0.00 0.00 0.00 19 1007.1
20170923222434 82 163 2.0 10.0 0.00 0.00 0.00 20 1007.2
20170923221901 82 203 1.0 4.0 0.00 0.00 0.00 20 1007.2
20170923221428 82 221 0.0 9.0 0.00 0.00 0.00 19 1007.3
20170923220421 82 223 2.0 9.0 0.00 0.00 0.00 19 1007.3
20170923213934 82 209 0.0 6.0 0.00 0.00 0.00 19 1007.5
20170923213354 82 228 1.0 7.0 0.00 0.00 0.00 20 1007.5
20170923212904 82 253 2.0 7.0 0.00 0.00 0.00 20 1007.5
20170923211905 82 239 1.0 9.0 0.00 0.00 0.00 20 1007.5
20170923211428 81 234 2.0 14.0 0.00 0.00 0.00 20 1007.7
20170923210400 81 246 1.0 9.0 0.00 0.00 0.00 20 1007.7
20170923204923 81 156 1.0 6.0 0.00 0.00 0.00 21 1007.5
20170923204408 81 169 1.0 7.0 0.00 0.00 0.00 21 1007.8
20170923201930 81 254 2.0 12.0 0.00 0.00 0.00 21 1007.9
20170923201421 81 255 3.0 12.0 0.00 0.00 0.00 21 1007.9
20170923200400 80 269 5.0 13.0 0.00 0.00 0.00 21 1008.0
20170923195914 80 289 0.0 5.0 0.00 0.00 0.00 22 1008.0
20170923195437 80 205 0.0 14.0 0.00 0.00 0.00 21 1008.1
20170923194859 80 258 4.0 14.0 0.00 0.00 0.00 21 1008.2
20170923194419 80 275 0.0 7.0 0.00 0.00 0.00 22 1008.3
20170923192933 80 234 1.0 10.0 0.00 0.00 0.00 21 1008.6
20170923192416 80 238 3.0 10.0 0.00 0.00 0.00 20 1008.7
20170923191914 80 234 0.0 6.0 0.00 0.00 0.00 21 1008.7
20170923191434 80 220 0.0 6.0 0.00 0.00 0.00 21 1008.7
20170923190907 80 184 1.0 5.0 0.00 0.00 0.00 21 1008.8
20170923185937 79 233 2.0 11.0 0.00 0.00 0.00 21 1008.8
20170923185401 79 287 2.0 5.0 0.00 0.00 0.00 22 1008.9
20170923184923 79 219 0.0 4.0 0.00 0.00 0.00 22 1008.9
20170923183911 79 285 2.0 7.0 0.00 0.00 0.00 21 1008.8
20170923183404 78 275 0.0 6.0 0.00 0.00 0.00 22 1008.9
20170923182907 78 248 0.0 9.0 0.00 0.00 0.00 22 1008.8
20170923182421 78 260 1.0 9.0 0.00 0.00 0.00 22 1009.0
20170923180931 77 237 1.0 3.0 0.00 0.00 0.00 23 1008.9
20170923175934 77 256 1.0 6.0 0.00 0.00 0.00 22 1009.0
20170923175414 77 292 1.0 6.0 0.00 0.00 0.00 22 1009.0
20170923173914 76 257 0.0 2.0 0.00 0.00 0.00 22 1008.9
20170923173409 76 259 0.0 3.0 0.00 0.00 0.00 23 1008.9
20170923172915 76 259 1.0 5.0 0.00 0.00 0.00 23 1008.9
20170923172432 76 262 1.0 5.0 0.00 0.00 0.00 23 1009.0
20170923171933 76 242 0.0 3.0 0.00 0.00 0.00 23 1009.0
20170923171409 76 239 0.0 4.0 0.00 0.00 0.00 23 1009.0
20170923165930 75 280 0.0 1.0 0.00 0.00 0.00 23 1008.9
20170923164426 74 280 0.0 3.0 0.00 0.00 0.00 22 1008.9
20170923162907 74 280 0.0 1.0 0.00 0.00 0.00 23 1008.9
20170923162408 74 280 0.0 1.0 0.00 0.00 0.00 23 1008.9
20170923161932 74 280 0.0 0.0 0.00 0.00 0.00 24 1008.9
20170923160856 73 281 0.0 2.0 0.00 0.00 0.00 23 1008.9
20170923160403 73 281 0.0 2.0 0.00 0.00 0.00 24 1008.9
20170923155356 72 281 0.0 1.0 0.00 0.00 0.00 24 1008.7
20170923154906 73 281 0.0 1.0 0.00 0.00 0.00 25 1008.6
20170923154420 73 281 0.0 0.0 0.00 0.00 0.00 25 1008.6
20170923153854 72 281 0.0 0.0 0.00 0.00 0.00 25 1008.6
20170923152928 71 281 0.0 1.0 0.00 0.00 0.00 29 1008.6
20170923152425 70 281 0.0 1.0 0.00 0.00 0.00 27 1008.6
20170923151916 70 281 0.0 0.0 0.00 0.00 0.00 29 1008.6
20170923150914 69 282 0.0 1.0 0.00 0.00 0.00 29 1008.5
20170923150402 68 281 0.0 0.0 0.00 0.00 0.00 31 1008.5
20170923145929 67 281 0.0 0.0 0.00 0.00 0.00 31 1008.3
20170923145420 66 281 0.0 0.0 0.00 0.00 0.00 32 1008.3
20170923144857 66 281 0.0 0.0 0.00 0.00 0.00 32 1008.2
20170923142913 63 280 0.0 0.0 0.00 0.00 0.00 32 1008.1